DW7214 Weather Reports


time (UTC)temp
C
wind
direction
speed
KPH
gust
KPH
rain 1hr
cm
rain 24hr
cm
rain mn
cm
humidity
%
barometer
mb
20200922195819 20 180 4.8 0.0 0.00 0.00 0.00 42 1013.6
20200922195314 20 204 1.6 0.0 0.00 0.00 0.00 41 1013.9
20200922194826 19 204 3.2 0.0 0.00 0.00 0.00 40 1013.9
20200922194318 19 204 3.2 0.0 0.00 0.00 0.00 41 1013.9
20200922193825 19 203 1.6 0.0 0.00 0.00 0.00 41 1014.1
20200922193321 19 203 0.0 0.0 0.00 0.00 0.00 39 1014.1
20200922192813 18 203 1.6 0.0 0.00 0.00 0.00 35 1014.1
20200922192323 18 204 4.8 0.0 0.00 0.00 0.00 41 1014.3
20200922191813 18 203 3.2 0.0 0.00 0.00 0.00 40 1014.3
20200922191309 19 219 1.6 0.0 0.00 0.00 0.00 39 1014.3
20200922190832 18 203 3.2 0.0 0.00 0.00 0.00 40 1014.5
20200922190328 18 278 6.4 0.0 0.00 0.00 0.00 39 1014.4
20200922185829 18 205 6.4 0.0 0.00 0.00 0.00 39 1014.4
20200922185323 18 173 6.4 0.0 0.00 0.00 0.00 42 1014.5
20200922184811 18 134 4.8 0.0 0.00 0.00 0.00 44 1014.5
20200922184322 18 204 4.8 0.0 0.00 0.00 0.00 43 1014.5
20200922183812 18 205 4.8 0.0 0.00 0.00 0.00 44 1014.4
20200922183328 18 191 3.2 0.0 0.00 0.00 0.00 45 1014.4
20200922182818 19 223 1.6 0.0 0.00 0.00 0.00 45 1014.4
20200922182328 18 225 4.8 0.0 0.00 0.00 0.00 43 1014.9
20200922181833 18 225 8.0 0.0 0.00 0.00 0.00 44 1014.8
20200922181318 18 201 6.4 0.0 0.00 0.00 0.00 45 1014.8
20200922180840 18 221 3.2 0.0 0.00 0.00 0.00 40 1015.1
20200922180328 18 221 3.2 0.0 0.00 0.00 0.00 24 1015.1
20200922175812 18 213 6.4 0.0 0.00 0.00 0.00 22 1015.1
20200922175324 17 203 6.4 0.0 0.00 0.00 0.00 29 1014.6
20200922174816 18 210 4.8 0.0 0.00 0.00 0.00 25 1014.6
20200922174313 18 215 3.2 0.0 0.00 0.00 0.00 13 1014.6
20200922173822 18 181 1.6 0.0 0.00 0.00 0.00 1 1014.8
20200922173320 18 181 0.0 0.0 0.00 0.00 0.00 100 1014.8
20200922172810 17 181 0.0 0.0 0.00 0.00 0.00 100 1014.8
20200922172322 17 181 0.0 0.0 0.00 0.00 0.00 100 1014.7
20200922171815 17 181 0.0 0.0 0.00 0.00 0.00 100 1014.8
20200922171333 17 181 1.6 0.0 0.00 0.00 0.00 100 1014.8
20200922170825 17 181 1.6 0.0 0.00 0.00 0.00 100 1014.7
20200922170313 17 145 0.0 0.0 0.00 0.00 0.00 100 1014.7
20200922165822 17 143 0.0 0.0 0.00 0.00 0.00 100 1014.7
20200922165319 17 213 0.0 0.0 0.00 0.00 0.00 100 1014.6
20200922164808 17 213 0.0 0.0 0.00 0.00 0.00 100 1014.6
20200922164322 16 213 0.0 0.0 0.00 0.00 0.00 100 1014.6
20200922163828 16 213 1.6 0.0 0.00 0.00 0.00 100 1014.6
20200922163324 15 213 1.6 0.0 0.00 0.00 0.00 100 1014.6
20200922162816 15 213 3.2 0.0 0.00 0.00 0.00 100 1014.6
20200922162310 15 200 3.2 0.0 0.00 0.00 0.00 100 1014.8
20200922161820 14 200 3.2 0.0 0.00 0.00 0.00 100 1014.7
20200922161321 13 200 1.6 0.0 0.00 0.00 0.00 100 1014.7
20200922160834 13 200 1.6 0.0 0.00 0.00 0.00 100 1014.5
20200922160318 13 200 0.0 0.0 0.00 0.00 0.00 100 1014.5
20200922155815 13 200 0.0 0.0 0.00 0.00 0.00 100 1014.5
20200922155323 13 200 0.0 0.0 0.00 0.00 0.00 100 1014.6
20200922154816 14 200 0.0 0.0 0.00 0.00 0.00 100 1014.6
20200922154327 14 200 1.6 0.0 0.00 0.00 0.00 100 1014.6
20200922153818 14 200 4.8 0.0 0.00 0.00 0.00 100 1014.6
20200922153310 14 200 4.8 0.0 0.00 0.00 0.00 100 1014.6
20200922152823 14 171 4.8 0.0 0.00 0.00 0.00 100 1014.6
20200922152319 14 175 6.4 0.0 0.00 0.00 0.00 100 1014.6
20200922151810 14 175 6.4 0.0 0.00 0.00 0.00 100 1014.6
20200922151326 14 221 6.4 0.0 0.00 0.00 0.00 100 1014.6
20200922150843 14 219 4.8 0.0 0.00 0.00 0.00 100 1014.6
20200922150324 14 219 3.2 0.0 0.00 0.00 0.00 100 1014.6
20200922145815 14 219 4.8 0.0 0.00 0.00 0.00 100 1014.6
20200922145326 14 219 3.2 0.0 0.00 0.00 0.00 100 1014.5
20200922144818 14 219 3.2 0.0 0.00 0.00 0.00 100 1014.5
20200922144319 13 219 4.8 0.0 0.00 0.00 0.00 100 1014.5
20200922143824 13 219 4.8 0.0 0.00 0.00 0.00 100 1014.5
20200922143319 13 219 3.2 0.0 0.00 0.00 0.00 100 1014.5
20200922142818 13 219 6.4 0.0 0.00 0.00 0.00 100 1014.5
20200922142323 13 219 6.4 0.0 0.00 0.00 0.00 100 1014.4
20200922141822 13 219 6.4 0.0 0.00 0.00 0.00 100 1014.4
20200922141327 13 219 8.0 0.0 0.00 0.00 0.00 100 1014.4
20200922140830 13 219 8.0 0.0 0.00 0.00 0.00 100 1014.5
20200922140308 13 220 8.0 0.0 0.00 0.00 0.00 100 1014.5
20200922135822 13 211 8.0 0.0 0.00 0.00 0.00 100 1014.5
20200922135317 14 213 6.4 0.0 0.00 0.00 0.00 100 1014.5
20200922134809 14 213 6.4 0.0 0.00 0.00 0.00 100 1014.5
20200922134321 14 212 6.4 0.0 0.00 0.00 0.00 100 1014.5
20200922133812 14 212 8.0 0.0 0.00 0.00 0.00 100 1014.3
20200922133309 14 211 6.4 0.0 0.00 0.00 0.00 100 1014.3
20200922132821 14 211 6.4 0.0 0.00 0.00 0.00 100 1014.3
20200922132316 14 211 6.4 0.0 0.00 0.00 0.00 100 1014.3
20200922131825 14 211 6.4 0.0 0.00 0.00 0.00 100 1014.3
20200922131321 14 211 6.4 0.0 0.00 0.00 0.00 100 1014.3
20200922130842 14 211 6.4 0.0 0.00 0.00 0.00 100 1014.2
20200922130324 14 211 6.4 0.0 0.00 0.00 0.00 100 1014.2
20200922125817 14 210 8.0 0.0 0.00 0.00 0.00 100 1014.2
20200922125308 14 211 8.0 0.0 0.00 0.00 0.00 100 1014.1
20200922124820 14 212 8.0 0.0 0.00 0.00 0.00 100 1014.1
20200922124312 14 213 8.0 0.0 0.00 0.00 0.00 100 1014.1
20200922123822 14 215 8.0 0.0 0.00 0.00 0.00 100 1014.1
20200922123319 14 217 8.0 0.0 0.00 0.00 0.00 100 1014.1
20200922122814 14 217 8.0 0.0 0.00 0.00 0.00 100 1014.1
20200922122337 14 211 6.4 0.0 0.00 0.00 0.00 100 1013.8
20200922121820 14 209 6.4 0.0 0.00 0.00 0.00 100 1013.8
20200922121309 14 209 6.4 0.0 0.00 0.00 0.00 100 1013.8
20200922120831 14 221 6.4 0.0 0.00 0.00 0.00 100 1013.7
20200922120312 14 219 9.7 0.0 0.00 0.00 0.00 100 1013.7
20200922115826 14 220 9.7 0.0 0.00 0.00 0.00 100 1013.7
20200922115316 14 213 11.3 0.0 0.00 0.00 0.00 100 1013.8
20200922114808 15 215 11.3 0.0 0.00 0.00 0.00 100 1013.8
20200922114324 15 217 11.3 0.0 0.00 0.00 0.00 100 1013.8
20200922113813 15 213 11.3 0.0 0.00 0.00 0.00 100 1013.6
20200922113310 15 208 11.3 0.0 0.00 0.00 0.00 100 1013.6
20200922112822 15 212 11.3 0.0 0.00 0.00 0.00 100 1013.6
20200922112315 15 210 11.3 0.0 0.00 0.00 0.00 100 1013.5
20200922111827 15 217 11.3 0.0 0.00 0.00 0.00 100 1013.5
20200922111319 15 211 9.7 0.0 0.00 0.00 0.00 100 1013.5
20200922110837 15 209 11.3 0.0 0.00 0.00 0.00 100 1013.4
20200922110318 15 223 11.3 0.0 0.00 0.00 0.00 100 1013.4
20200922105815 15 220 12.9 0.0 0.00 0.00 0.00 100 1013.4
20200922105326 15 213 12.9 0.0 0.00 0.00 0.00 100 1013.4
20200922104817 15 211 12.9 0.0 0.00 0.00 0.00 100 1013.4
20200922104312 15 214 12.9 0.0 0.00 0.00 0.00 100 1013.4
20200922103818 15 207 11.3 0.0 0.00 0.00 0.00 100 1013.5
20200922103311 15 202 12.9 0.0 0.00 0.00 0.00 100 1013.5
20200922102823 15 213 12.9 0.0 0.00 0.00 0.00 100 1013.5
20200922102315 15 211 11.3 0.0 0.00 0.00 0.00 100 1013.4
20200922101827 15 230 11.3 0.0 0.00 0.00 0.00 100 1013.4
20200922101322 15 221 11.3 0.0 0.00 0.00 0.00 100 1013.4
20200922100841 15 213 11.3 0.0 0.00 0.00 0.00 100 1013.3
20200922100327 15 113 8.0 0.0 0.00 0.00 0.00 100 1013.3
20200922095818 15 179 4.8 0.0 0.00 0.00 0.00 100 1013.3
20200922095313 15 182 1.6 0.0 0.00 0.00 0.00 100 1013.2
20200922094822 15 178 1.6 0.0 0.00 0.00 0.00 100 1013.2
20200922094314 15 177 0.0 0.0 0.00 0.00 0.00 100 1013.2
20200922093830 15 173 0.0 0.0 0.00 0.00 0.00 100 1013.0
20200922093317 15 173 0.0 0.0 0.00 0.00 0.00 100 1013.0
20200922092814 15 173 0.0 0.0 0.00 0.00 0.00 100 1013.0
20200922092325 15 173 1.6 0.0 0.00 0.00 0.00 100 1013.0
20200922091825 15 173 1.6 0.0 0.00 0.00 0.00 100 1013.0
20200922091309 15 169 3.2 0.0 0.00 0.00 0.00 100 1013.0
20200922090832 15 167 3.2 0.0 0.00 0.00 0.00 100 1012.9
20200922090313 15 167 6.4 0.0 0.00 0.00 0.00 100 1012.9
20200922085824 15 167 8.0 0.0 0.00 0.00 0.00 100 1012.9
20200922085319 15 168 6.4 0.0 0.00 0.00 0.00 100 1012.9
20200922084808 15 169 8.0 0.0 0.00 0.00 0.00 100 1012.9
20200922084326 15 171 9.7 0.0 0.00 0.00 0.00 100 1012.9
20200922083814 15 217 9.7 0.0 0.00 0.00 0.00 100 1012.9
20200922083327 15 209 9.7 0.0 0.00 0.00 0.00 100 1012.9
20200922082819 15 211 9.7 0.0 0.00 0.00 0.00 100 1012.9
20200922082310 15 216 8.0 0.0 0.00 0.00 0.00 100 1012.8
20200922081827 16 238 6.4 0.0 0.00 0.00 0.00 100 1012.8
20200922081315 16 218 3.2 0.0 0.00 0.00 0.00 100 1012.8
20200922080836 16 183 3.2 0.0 0.00 0.00 0.00 100 1012.8
20200922080320 16 200 3.2 0.0 0.00 0.00 0.00 100 1012.8
20200922075814 16 209 8.0 0.0 0.00 0.00 0.00 100 1012.8
20200922075326 16 214 9.7 0.0 0.00 0.00 0.00 100 1012.9
20200922074820 16 216 11.3 0.0 0.00 0.00 0.00 100 1012.9
20200922074310 16 213 11.3 0.0 0.00 0.00 0.00 100 1012.9
20200922073821 16 213 11.3 0.0 0.00 0.00 0.00 100 1012.8
20200922073315 16 214 11.3 0.0 0.00 0.00 0.00 100 1012.8
20200922072827 16 227 11.3 0.0 0.00 0.00 0.00 100 1012.8
20200922072319 16 228 9.7 0.0 0.00 0.00 0.00 100 1013.0
20200922071815 16 211 8.0 0.0 0.00 0.00 0.00 100 1013.0
20200922071327 16 212 6.4 0.0 0.00 0.00 0.00 100 1013.0
20200922070827 16 169 8.0 0.0 0.00 0.00 0.00 100 1012.9
20200922070311 16 169 8.0 0.0 0.00 0.00 0.00 100 1012.9
20200922065823 16 169 8.0 0.0 0.00 0.00 0.00 100 1012.9
20200922065325 16 203 9.7 0.0 0.00 0.00 0.00 100 1012.9
20200922064807 16 203 11.3 0.0 0.00 0.00 0.00 100 1012.9
20200922064318 16 158 11.3 0.0 0.00 0.00 0.00 100 1012.9
20200922063828 16 158 11.3 0.0 0.00 0.00 0.00 100 1012.7
20200922063319 16 158 11.3 0.0 0.00 0.00 0.00 100 1012.7
20200922062815 16 158 11.3 0.0 0.00 0.00 0.00 100 1012.7
20200922062326 16 158 12.9 0.0 0.00 0.00 0.00 100 1012.6
20200922061816 16 158 11.3 0.0 0.00 0.00 0.00 100 1012.6
20200922061327 16 158 9.7 0.0 0.00 0.00 0.00 100 1012.6
20200922060830 16 158 9.7 0.0 0.00 0.00 0.00 100 1012.5
20200922060308 16 217 11.3 0.0 0.00 0.00 0.00 100 1012.5
20200922055818 16 209 11.3 0.0 0.00 0.00 0.00 100 1012.5
20200922055329 16 211 9.7 0.0 0.00 0.00 0.00 100 1012.4
20200922054819 16 215 9.7 0.0 0.00 0.00 0.00 100 1012.4
20200922054311 16 217 9.7 0.0 0.00 0.00 0.00 100 1012.4
20200922053814 17 210 9.7 0.0 0.00 0.00 0.00 100 1012.4
20200922053326 17 209 9.7 0.0 0.00 0.00 0.00 100 1012.4
20200922052824 17 218 12.9 0.0 0.00 0.00 0.00 100 1012.4
20200922052309 17 209 12.9 0.0 0.00 0.00 0.00 100 1012.5
20200922051820 17 212 12.9 0.0 0.00 0.00 0.00 100 1012.5
20200922051312 17 213 11.3 0.0 0.00 0.00 0.00 100 1012.5
20200922050828 17 215 11.3 0.0 0.00 0.00 0.00 100 1012.4
20200922050310 17 221 9.7 0.0 0.00 0.00 0.00 100 1012.4
20200922045821 17 214 11.3 0.0 0.00 0.00 0.00 100 1012.4
20200922045315 17 211 11.3 0.0 0.00 0.00 0.00 100 1012.4
20200922044827 17 209 11.3 0.0 0.00 0.00 0.00 100 1012.4
20200922044313 17 212 11.3 0.0 0.00 0.00 0.00 100 1012.4
20200922043820 17 218 12.9 0.0 0.00 0.00 0.00 100 1012.4
20200922043310 17 213 12.9 0.0 0.00 0.00 0.00 100 1012.4
20200922042821 17 216 12.9 0.0 0.00 0.00 0.00 100 1012.4
20200922042308 17 217 11.3 0.0 0.00 0.00 0.00 100 1012.5
20200922041818 17 215 11.3 0.0 0.00 0.00 0.00 100 1012.5
20200922041309 17 208 11.3 0.0 0.00 0.00 0.00 100 1012.4
20200922040833 17 219 9.7 0.0 0.00 0.00 0.00 100 1012.2
20200922040315 17 213 8.0 0.0 0.00 0.00 0.00 100 1012.2
20200922035827 17 210 6.4 0.0 0.00 0.00 0.00 1 1012.2
20200922035318 17 216 6.4 0.0 0.00 0.00 0.00 3 1012.0
20200922034816 17 221 6.4 0.0 0.00 0.00 0.00 4 1012.0
20200922034322 17 208 6.4 0.0 0.00 0.00 0.00 5 1012.0
20200922033816 17 211 8.0 0.0 0.00 0.00 0.00 6 1011.9
20200922033326 17 214 8.0 0.0 0.00 0.00 0.00 7 1011.9
20200922032819 17 215 9.7 0.0 0.00 0.00 0.00 9 1011.9
20200922032310 17 212 9.7 0.0 0.00 0.00 0.00 10 1011.9
20200922031827 17 211 9.7 0.0 0.00 0.00 0.00 11 1011.9
20200922031318 17 215 9.7 0.0 0.00 0.00 0.00 12 1011.9
20200922030840 17 213 8.0 0.0 0.00 0.00 0.00 13 1011.8
20200922030326 17 211 8.0 0.0 0.00 0.00 0.00 15 1011.8
20200922025813 17 213 8.0 0.0 0.00 0.00 0.00 17 1011.8
20200922025322 17 217 8.0 0.0 0.00 0.00 0.00 19 1011.6
20200922024811 17 211 9.7 0.0 0.00 0.00 0.00 21 1011.6
20200922024320 17 212 9.7 0.0 0.00 0.00 0.00 24 1011.6
20200922023829 18 213 9.7 0.0 0.00 0.00 0.00 26 1011.6
20200922023321 18 211 9.7 0.0 0.00 0.00 0.00 28 1011.6
20200922022815 18 213 8.0 0.0 0.00 0.00 0.00 30 1011.6
20200922022327 18 215 8.0 0.0 0.00 0.00 0.00 32 1011.6
20200922021815 18 212 9.7 0.0 0.00 0.00 0.00 34 1011.6
20200922021322 18 212 11.3 0.0 0.00 0.00 0.00 35 1011.6
20200922020825 18 211 9.7 0.0 0.00 0.00 0.00 36 1011.7
20200922020325 18 209 8.0 0.0 0.00 0.00 0.00 38 1011.7
20200922015816 18 211 9.7 0.0 0.00 0.00 0.00 39 1011.7
20200922015329 18 208 11.3 0.0 0.00 0.00 0.00 40 1011.7
20200922014818 18 209 12.9 0.0 0.00 0.00 0.00 41 1011.7
20200922014313 18 214 12.9 0.0 0.00 0.00 0.00 42 1011.7
20200922013824 19 207 11.3 0.0 0.00 0.00 0.00 44 1011.5
20200922013319 19 221 11.3 0.0 0.00 0.00 0.00 45 1011.5
20200922012811 19 211 9.7 0.0 0.00 0.00 0.00 45 1011.5
20200922012323 20 209 9.7 0.0 0.00 0.00 0.00 46 1011.4
20200922011816 20 215 11.3 0.0 0.00 0.00 0.00 46 1011.4
20200922011328 20 211 11.3 0.0 0.00 0.00 0.00 47 1011.4
20200922010832 20 205 11.3 0.0 0.00 0.00 0.00 47 1011.3
20200922010309 20 219 11.3 0.0 0.00 0.00 0.00 48 1011.3
20200922005825 20 200 11.3 0.0 0.00 0.00 0.00 48 1011.3
20200922005320 20 191 8.0 0.0 0.00 0.00 0.00 48 1011.2
20200922004809 21 217 8.0 0.0 0.00 0.00 0.00 48 1011.3
20200922004324 21 219 4.8 0.0 0.00 0.00 0.00 48 1011.3
20200922003811 21 215 6.4 0.0 0.00 0.00 0.00 47 1011.3
20200922003327 21 215 8.0 0.0 0.00 0.00 0.00 48 1011.3
20200922002820 21 203 6.4 0.0 0.00 0.00 0.00 48 1011.3
20200922002318 21 212 4.8 0.0 0.00 0.00 0.00 48 1011.2
20200922001823 21 206 6.4 0.0 0.00 0.00 0.00 48 1011.2
20200922001319 21 217 8.0 0.0 0.00 0.00 0.00 48 1011.2
20200922000841 21 208 8.0 0.0 0.00 0.00 0.00 48 1011.2
20200922000328 21 212 9.7 0.0 0.00 0.00 0.00 48 1011.2
20200921235810 22 211 9.7 0.0 0.00 0.00 0.00 48 1011.2
20200921235323 22 221 9.7 0.0 0.00 0.00 0.00 47 1011.2
20200921234816 22 204 4.8 0.0 0.00 0.00 0.00 46 1011.2
20200921234326 22 198 3.2 0.0 0.00 0.00 0.00 46 1011.2
20200921233816 22 198 3.2 0.0 0.00 0.00 0.00 46 1011.2
20200921233310 22 198 4.8 0.0 0.00 0.00 0.00 45 1011.2
20200921232828 22 190 4.8 0.0 0.00 0.00 0.00 45 1011.2
20200921232319 22 204 1.6 0.0 0.00 0.00 0.00 45 1011.3
20200921231810 22 213 1.6 0.0 0.00 0.00 0.00 44 1011.3
20200921231325 22 206 1.6 0.0 0.00 0.00 0.00 44 1011.3
20200921230824 21 206 3.2 0.0 0.00 0.00 0.00 44 1011.3
20200921230327 21 198 1.6 0.0 0.00 0.00 0.00 45 1011.3
20200921225818 21 201 4.8 0.0 0.00 0.00 0.00 45 1011.3
20200921225316 21 202 4.8 0.0 0.00 0.00 0.00 46 1011.2
20200921224825 22 205 1.6 0.0 0.00 0.00 0.00 45 1011.3
20200921224330 22 236 3.2 0.0 0.00 0.00 0.00 45 1011.3
20200921223829 22 236 3.2 0.0 0.00 0.00 0.00 45 1011.3
20200921223322 22 197 1.6 0.0 0.00 0.00 0.00 44 1011.3
20200921222812 21 196 4.8 0.0 0.00 0.00 0.00 44 1011.3
20200921222324 21 196 4.8 0.0 0.00 0.00 0.00 44 1011.3
20200921221813 22 190 3.2 0.0 0.00 0.00 0.00 44 1011.3
20200921221325 22 211 0.0 0.0 0.00 0.00 0.00 43 1011.3
20200921220824 21 211 0.0 0.0 0.00 0.00 0.00 43 1011.4
20200921220309 21 211 1.6 0.0 0.00 0.00 0.00 42 1011.4
20200921215825 21 211 0.0 0.0 0.00 0.00 0.00 42 1011.4
20200921215317 21 210 0.0 0.0 0.00 0.00 0.00 39 1011.6
20200921214809 21 202 3.2 0.0 0.00 0.00 0.00 38 1011.5
20200921214322 20 202 3.2 0.0 0.00 0.00 0.00 38 1011.5
20200921213818 20 201 3.2 0.0 0.00 0.00 0.00 35 1011.7
20200921213326 20 201 3.2 0.0 0.00 0.00 0.00 34 1011.6
20200921212815 20 206 4.8 0.0 0.00 0.00 0.00 32 1011.6
20200921212327 20 205 3.2 0.0 0.00 0.00 0.00 30 1011.7
20200921211819 20 205 1.6 0.0 0.00 0.00 0.00 27 1011.7
20200921211315 20 205 1.6 0.0 0.00 0.00 0.00 25 1011.7
20200921210914 20 205 3.2 0.0 0.00 0.00 0.00 23 1011.8
20200921210313 19 205 3.2 0.0 0.00 0.00 0.00 25 1011.8
20200921205828 20 205 0.0 0.0 0.00 0.00 0.00 20 1011.8
20200921205319 20 205 1.6 0.0 0.00 0.00 0.00 18 1011.9
20200921204809 19 205 4.8 0.0 0.00 0.00 0.00 17 1011.9
20200921204321 19 205 6.4 0.0 0.00 0.00 0.00 17 1011.9
20200921203831 19 205 8.0 0.0 0.00 0.00 0.00 13 1012.1
20200921203324 19 205 4.8 0.0 0.00 0.00 0.00 15 1012.1
20200921202818 19 213 4.8 0.0 0.00 0.00 0.00 8 1012.1
20200921202314 19 210 6.4 0.0 0.00 0.00 0.00 12 1012.2
20200921201829 19 211 4.8 0.0 0.00 0.00 0.00 15 1012.2
20200921201316 19 211 3.2 0.0 0.00 0.00 0.00 9 1012.2
20200921200837 19 211 1.6 0.0 0.00 0.00 0.00 10 1012.3
20200921200317 19 211 1.6 0.0 0.00 0.00 0.00 9 1012.3